{"data":{"norad_id":68996,"intl_designator":"2026-100S","name":"ICEYE-X82","alt_names":[],"object_type":"PAYLOAD","status":"ACTIVE","operator":null,"country":"POR","launch_date":"2026-05-03","launch_site_code":"AFWTR","launch_vehicle":null,"mission":null,"orbit_class":"UNKNOWN","rcs_meters":null,"size_class":null,"mass_kg":null,"dimensions":null,"purposes":[],"wikipedia_slug":null,"has_3d_model":false,"image_url":null,"decayed_at":null,"tle_current":{"epoch":"2026-09-19T22:51:38.661984Z","epoch_age_seconds":66711,"freshness":"FRESH","line1":"1 68996U 26100S   26262.95253081  .00001261  00000+0  13098-3 0  9991","line2":"2 68996  97.7226 158.4972 0003898 171.4401 188.6885 14.91651196 20824","mean_motion":14.91651196,"eccentricity":0.0003898,"inclination_deg":97.7226,"raan_deg":158.4972,"arg_perigee_deg":171.4401,"mean_anomaly_deg":188.6885,"bstar":0.00013098,"rev_number":2082,"period_min":96.537314075938,"perigee_km":590.06930028227,"apogee_km":595.50383229455,"semimajor_km":6970.9235662884,"source":"CELESTRAK","updated_at":"2026-09-20T09:00:24.624290Z"}}}